Miscellaneous Local Product
Issued by NWS North Platte, NE

Home | Current Version | Previous Version | Graphics & Text | Print | Product List | Glossary On
Versions: 1 2 3 4 5 6 7 8 9 10 11 12 13 14 15 16 17 18 19 20 21 22 23 24 25 26 27 28 29 30 31 32 33 34 35 36 37 38 39 40 41 42 43 44 45 46 47 48 49 50
000
AXUS43 KLBF 300410
MISLBF


WESTERN AND NORTH CENTRAL NEBRASKA HOURLY WEATHER ROUNDUP
NATIONAL WEATHER SERVICE NORTH PLATTE NE
1100 PM CDT WED OCT 29 2014

***STATIONS NOT REPORTING VARIABLES SUCH AS SKY/WEATHER OR
PRESSURE ARE PROVIDED BY THE NEBRASKA DEPARTMENT OF
ROADS...RAWS...AND APRS NETWORKS...AND ARE NOT UNDER
NATIONAL WEATHER SERVICE QUALITY CONTROL***

...OBSERVATIONS IN AND NEAR THE EASTERN PANHANDLE OF NEBRASKA...

CITY           SKY/WX    TMP DP  RH WIND       PRES   REMARKS
PINE RIDGE     PTCLDY    38  27  64 W3        30.11R
CHADRON        MOCLDY    42  29  59 N3        30.12R
ALLIANCE       CLEAR     37  26  64 N5        30.11R WCI  33
SIDNEY         MOCLDY    42  25  50 NW9       30.15R
WHITECLAY        N/A     32  24  71 SE5         N/A  WCI  28
RUSHVILLE        N/A     41  25  52 W6          N/A
CRESCENT LAKE    N/A     42  25  51 W7          N/A
LISCO            N/A     45  25  46 CALM        N/A
LEWELLEN         N/A     44  21  40 W6          N/A
$$

...OBSERVATIONS IN NORTH CENTRAL NEBRASKA...

CITY           SKY/WX    TMP DP  RH WIND       PRES   REMARKS
VALENTINE      PTCLDY    44  26  49 W8        30.04R
THEDFORD       PTCLDY    50  27  42 N7        30.05S
AINSWORTH      MOCLDY    47  28  48 W8        30.03R
O`NEILL        CLOUDY    48  34  58 S7        30.02R
ORD            MOCLDY    45  33  63 CALM      30.00R
BROKEN BOW     MOCLDY    49  35  58 VRB6      30.01R
BROWNLEE         N/A     52  25  34 NW5         N/A
SPRINGVIEW       N/A     45  33  62 CALM        N/A
BREWSTER         N/A     46  29  53 CALM        N/A
ROSE             N/A     51  34  51 CALM        N/A
NEWPORT          N/A     45  32  61 CALM        N/A
SARGENT          N/A     43  32  66 CALM        N/A
COMSTOCK         N/A     47  35  62 CALM        N/A
CHAMBERS         N/A     45  29  54 CALM        N/A
$$

...OBSERVATIONS IN SOUTHWEST NEBRASKA AND FAR NORTHEAST COLORADO...

CITY           SKY/WX    TMP DP  RH WIND       PRES   REMARKS
WRAY           FAIR      53  23  31 NW12      30.09R
HOLYOKE        FAIR      48  27  43 N12       30.11R
IMPERIAL       CLEAR     50  23  34 NW13      30.07R
OGALLALA       CLEAR     54  27  34 N12       30.08R
NORTH PLATTE   PTCLDY    55  24  30 N13       30.03R
MCCOOK         MOCLDY    52  30  43 SW9       30.01R
LEXINGTON      MOCLDY    49  37  63 S5        29.98R
PAXTON           N/A     58  28  32 CALM        N/A
SUTHERLAND       N/A     49  12  22 N7          N/A
BRADY            N/A     49  30  48 CALM        N/A
GOTHENBURG       N/A     51  30  44 N3          N/A
CALLAWAY         N/A     48  33  56 N12         N/A
$$

...SOME WEATHER OBSERVATIONS FROM AROUND THE REGION...

CITY           SKY/WX    TMP DP  RH WIND       PRES   REMARKS
DENVER         PTCLDY    51  20  29 E6        30.18R
LARAMIE        PTCLDY    42  24  49 NW14      30.26R
CHEYENNE       MOCLDY    47  24  40 NW8       30.21R
SCOTTSBLUFF    PTCLDY    43  30  60 NW7       30.13R
RAPID CITY     CLEAR     41  32  70 NW7       30.09R
PIERRE         CLEAR     45  31  58 W9        29.98R
WINNER         FAIR      48  26  42 SW8       30.00R
SIOUX FALLS    CLOUDY    48  32  53 S7        30.03R
OMAHA          MOCLDY    48  32  53 SE5       30.08R
GRAND ISLAND   MOCLDY    51  34  52 SE10      29.99F
KANSAS CITY    CLEAR     45  34  65 SE7       30.10F
WICHITA        CLEAR     52  33  48 S9        30.08S
HAYS           CLEAR     52  36  54 SW7       30.02S
LIBERAL        CLEAR     46  34  61 S10       30.10R
GOODLAND       CLEAR     53  23  31 W12       30.11R
$$



USA.gov is the U.S. government's official web portal to all federal, state and local government web resources and services.